Regional Weather Roundup
Issued by NWS Newport/Morehead, NC

Home | Current Version | Previous Version | Text Only | Print | Product List | Glossary On
Versions: 1 2 3 4 5 6 7 8 9 10 11 12 13 14 15 16 17 18 19 20 21 22 23 24 25 26 27 28 29 30 31 32 33 34 35 36 37 38 39 40 41 42 43 44 45 46 47 48 49 50
000
ASUS42 KMHX 012325
RWRMHX
WEATHER ROUNDUP FOR EASTERN NORTH CAROLINA
NATIONAL WEATHER SERVICE NEWPORT/MOREHEAD CITY NC
700 PM EDT SUN MAY 01 2016

NOTE: "FAIR" INDICATES FEW OR NO CLOUDS BELOW 12,000 FEET
WITH NO SIGNIFICANT WEATHER AND/OR OBSTRUCTIONS TO VISIBILITY

NCZ015>017-031-032-045>047-102-103-020000-
NORTH COAST

CITY           SKY/WX    TMP DP  RH WIND       PRES   REMARKS
EDENTON        CLEAR     73  67  81 S9        30.00F
ELIZABETH CITY CLOUDY    72  65  78 S9        30.00F
KITTY HAWK     CLOUDY    72  65  78 S6        30.00F
MANTEO         NOT AVBL

$$

NCZ045>047-081-094-103-104-020000-
CENTRAL COAST

CITY           SKY/WX    TMP DP  RH WIND       PRES   REMARKS
FRISCO         MOCLDY    69  66  90 S10       30.04F
SWANQUARTER    NOT AVBL

$$

NCZ095-097-098-100-101-020000-
SOUTHERN COAST

CITY           SKY/WX    TMP DP  RH WIND       PRES   REMARKS
BEAUFORT       CLOUDY    71  66  84 S13       30.04F
CEDAR ISLAND   NOT AVBL
JACKSONVILLE   MOSUNNY   71  66  84 S7        30.03F
PINEY ISLAND   NOT AVBL
WILMINGTON     CLOUDY    72  68  87 S8        30.04F


$$

NCZ011>013-027>030-043-044-078>080-089-090>093-098-020000-
COASTAL PLAIN

CITY           SKY/WX    TMP DP  RH WIND       PRES   REMARKS
AHOSKIE        SUNNY     70  64  82 S3        29.99S
CLINTON        CLOUDY    72  69  90 S5        30.02F
ELIZABETHTOWN  CLOUDY    73  68  86 S8        30.01F
GOLDSBORO      CLOUDY    73  72  94 S8        29.99S
GREENVILLE     SUNNY     72  68  88 SW12      30.02S
HAVELOCK       MOCLDY    73  64  73 S12       30.04F
KENANSVILLE    CLOUDY    71  65  82 CALM      30.02F
KINSTON        CLOUDY    73  66  78 S12       30.02F
NEW BERN       CLOUDY    72  65  78 S9        30.03F
RICHLANDS      MOSUNNY   71  67  87 S10       30.03F
ROCKY MOUNT    CLOUDY    73  65  75 S7        29.99S
WASHINGTON     CLEAR     71  66  82 S6        30.01S
WHITEVILLE     PTSUNNY   72  68  87 S9        30.02F

$$

AMZ130-135-150-152-154-156-158-170-250-252-270-ANZ085-086-088-633-658-670-020000-
MARINE OBSERVATIONS

STATION/POSITION TIME  TEMP    WIND        PRES    WAVE   SWELL
                       AIR SEA DIR/SP/G            HT/PER HT/PER
                 (UTC) (F)     (DEG/KT/KT) (MB)    (FT/S) (FT/S)
CHESAPEAKE LIGHT 2300   63     170/ 16/ 16 1015.7
64 E VA BEACH    2250   60 53  190/ 14/ 14 1016.2    4/ 8   3/ 8
DUCK             2300   71 66              1015.4
2 E DUCK         2211      59                N/A     3/ 9   2/11
OREGON INLET     2300   70 65              1016.2
13E OREGON INLT  2300      60                N/A     4/ 9   3/ 9
HATTERAS CG      2300   70 67              1016.6
DIAMOND BUOY     2250   74 74  180/ 16/ 17 1017.4    4/ 9   3/ 9
CAPE LOOKOUT     2300   70     180/ 12/ 13 1017.1
BEAUFORT LAB     2300   70 67              1016.3
30 SE NEW RVR IN 2225      70                N/A     4/ 9   2/11
27 SE WRIGHTSVLE 2308   73 71  170/ 12/ 16 1017.9
5 SE WRIGHTSVLE  2308   71 68  200/  8/ 10 1018.1
225 S CAPE HAT   2250   73 74  130/  8/ 10 1019.9    4/ 9   5/ 9
41 SE CHARLESTON 2250   75 73  160/  6/  6 1017.7    4/ 6   3/ 6

$$




USA.gov is the U.S. government's official web portal to all federal, state and local government web resources and services.